Location: Congrier
(47.8099°N, 1.1170°W)
Time: 07:31:32
(UTC+00:00)

NOSS 3-3 (C) - Pass Details

Date: 13 August 2024
Orbit: 731 x 1483 km, 63.4° (Epoch: 06 September)

Event Time Altitude Azimuth Distance (km) Brightness Sun altitude
Exits shadow 04:03:16 - 213° (SSW) 2,465 5.6 -8.9°
Reaches altitude 10° 04:03:34 10° 213° (SSW) 2,346 5.5 -8.8°
Maximum altitude 04:08:55 79° 128° (SE) 890 3.9 -8.1°
Drops below altitude 10° 04:15:17 10° 42° (NE) 2,769 7.8 -7.2°
Sets 04:18:07 0° 42° (NE) 3,843 8.8 -6.7°
